This demonstration page uses our WeatherBlox Daily Observations layout. Learn more.

Left ArrowRight Arrow

38.80484, -77.04692

Hourly Observations for February 5, 2021

Temp ( °F °C ) Dew Point ( °F °C ) Humidity (%) Winds ( mph kmh ) Pressure ( in mb ) Visibility ( mi km ) Precip ( " mm )
12:52 am 00:52 Cloudy 43 6.1 21 -6.1 42 42 SSE 7 11 29.81 1009 10 16 0.00 0.00
1:52 am 01:52 Cloudy 42 5.6 25 -3.9 51 51 S 13 20 29.80 1009 10 16 0.00 0.00
2:52 am 02:52 Cloudy 42 5.6 25 -3.9 51 51 S 8 13 29.75 1008 10 16 0.00 0.00
3:52 am 03:52 Cloudy with Light Rain 42 5.6 27 -2.8 55 55 SSW 15 24 29.75 1007 10 16 0.00 0.00
4:52 am 04:52 Cloudy with Light Rain 38 3.3 32 0 79 79 S 13 20 29.72 1007 10 16 0.05 1.27
5:52 am 05:52 Cloudy with Light Rain 38 3.3 34 1.1 86 86 S 12 19 29.71 1006 10 16 0.02 0.51
6:52 am 06:52 Mostly Clear 40 4.4 33 0.6 77 77 SSW 12 19 29.72 1006 10 16 0.00 0.00
7:52 am 07:52 Mostly Cloudy 41 5 33 0.6 73 73 S 14 22 29.71 1006 10 16 0.00 0.00
8:52 am 08:52 Partly Cloudy 42 5.6 34 1.1 73 73 SSW 12 19 29.71 1006 10 16 0.00 0.00
9:52 am 09:52 Mostly Sunny 45 7.2 35 1.7 68 68 SSW 13 20 29.70 1006 10 16 0.00 0.00
10:52 am 10:52 Partly Cloudy 48 8.9 36 2.2 63 63 SSW 12 19 29.69 1005 10 16 0.00 0.00
11:52 am 11:52 Mostly Sunny 51 10.6 37 2.8 59 59 S 9 15 29.68 1005 10 16 0.00 0.00
12:52 pm 12:52 Mostly Sunny 54 12.2 36 2.2 51 51 SW 9 15 29.66 1004 10 16 0.00 0.00
1:52 pm 13:52 Mostly Sunny 56 13.3 30 -1.1 37 37 W 15 24 29.65 1004 10 16 0.00 0.00
2:52 pm 14:52 Partly Cloudy 55 12.8 30 -1.1 38 38 WSW 13 20 29.64 1004 10 16 0.00 0.00
3:52 pm 15:52 Mostly Cloudy 56 13.3 30 -1.1 37 37 WSW 10 17 29.63 1003 10 16 0.00 0.00
4:52 pm 16:52 Mostly Cloudy 55 12.8 23 -5 29 29 WSW 17 28 29.65 1004 10 16 0.00 0.00
5:23 pm 17:23 Mostly Cloudy 51 10.6 28 -2.2 41 41 NW 18 30 29.69 1005 10 16 0.00 0.00
5:52 pm 17:52 Mostly Cloudy 49 9.4 25 -3.9 39 39 NW 14 22 29.71 1006 10 16 0.00 0.00
6:52 pm 18:52 Mostly Cloudy 47 8.3 21 -6.1 36 36 NW 14 22 29.75 1007 10 16 0.00 0.00
7:52 pm 19:52 Mostly Cloudy 45 7.2 18 -7.8 34 34 NW 13 20 29.76 1008 10 16 0.00 0.00
8:52 pm 20:52 Cloudy 44 6.7 19 -7.2 37 37 WNW 13 20 29.81 1010 10 16 0.00 0.00
9:52 pm 21:52 Cloudy 43 6.1 19 -7.2 38 38 NW 14 22 29.87 1011 10 16 0.00 0.00
10:52 pm 22:52 Cloudy 40 4.4 19 -7.2 43 43 NNW 10 17 29.87 1011 10 16 0.00 0.00
11:52 pm 23:52 Cloudy 36 2.2 19 -7.2 50 50 N 8 13 29.87 1012 10 16 0.00 0.00

Powered by AerisWeather